Regional Weather Roundup
Issued by NWS

Home | Current Version | Previous Version | Text Only | Print | Product List | Glossary Off
Versions: 1 2 3 4 5 6 7 8 9 10 11 12 13 14 15 16 17 18 19 20 21 22 23 24 25 26 27 28 29 30 31 32 33 34 35 36 37 38 39 40 41 42 43 44 45 46 47 48 49 50

000
ASUS43 KFSD 250610
RWRSD

WEATHER ROUNDUP FOR SOUTH DAKOTA
NATIONAL WEATHER SERVICE SIOUX FALLS SD
100 AM CDT TUE APR 25 2017

NOTE: "FAIR" INDICATES FEW OR NO CLOUDS BELOW 12,000 FEET WITH NO
SIGNIFICANT WEATHER AND/OR OBSTRUCTIONS TO VISIBILITY.


SDZ001>005-009-010-012>017-250700-
NORTHWEST AND NORTH CENTRAL SOUTH DAKOTA

CITY           SKY/WX    TMP DP  RH WIND       PRES   REMARKS
BUFFALO          N/A     35  32  88 NE14      29.62R WCI  26
FAITH            N/A     35  34  96 NE16      29.67R WCI  25
MOBRIDGE       CLOUDY    37  29  72 N13       29.68R
$$

SDZ012>016-024>037-041>051-057-063-072>074-250700-
SOUTHWEST AND SOUTH CENTRAL SOUTH DAKOTA

CITY           SKY/WX    TMP DP  RH WIND       PRES   REMARKS
RAPID CTY ARPT LGT RAIN  39  34  82 NE10      29.65R
PIERRE         CLOUDY    39  33  79 N14       29.66S
CUSTER         FOG       38  36  92 E12       29.60S VSB 1/4
ELLSWORTH AFB  CLOUDY    39  37  90 NE12      29.65R
PHILIP         CLOUDY    40  36  86 NE14      29.66R
PINE RIDGE     CLOUDY    48  41  76 E14G23    29.59S
SPEARFISH      MIX PCPN  37  37 100 E16G22    29.63S
WINNER         FAIR      38  35  89 N6        29.63F
$$

SDZ004>011-016>023-039-040-250700-
NORTHEAST SOUTH DAKOTA

CITY           SKY/WX    TMP DP  RH WIND       PRES   REMARKS
ABERDEEN       CLOUDY    36  31  82 N15       29.65F
WATERTOWN      CLOUDY    38  36  92 N16       29.58S
BROOKINGS      CLOUDY    40  37  89 N10       29.57S
SISSETON         N/A     36  35  96 N22       29.60S
$$

SDZ017-020-022-023-036>040-048>070-250700-
SOUTHEAST SOUTH DAKOTA

CITY           SKY/WX    TMP DP  RH WIND       PRES   REMARKS
SIOUX FALLS    CLOUDY    43  40  89 N9        29.56F
HURON          CLOUDY    39  35  86 N14       29.62S
CHAMBERLAIN    CLOUDY    42  38  85 N12G18    29.62F
MITCHELL       CLOUDY    42  37  82 N12       29.63R
YANKTON        PTCLDY    45  36  70 N15G21    29.58R
$$

ABBREVIATIONS USED IN REMARKS
   TC - TEMPERATURE IN CELSIUS
  WCI - WIND CHILL INDEX
   HX - HEAT INDEX
  VSB - VISIBILITY





USA.gov is the U.S. government's official web portal to all federal, state and local government web resources and services.